Regional Weather Roundup
Issued by NWS Sioux Falls, SD

Home | Current Version | Previous Version | Graphics & Text | Print | Product List | Glossary Off
Versions: 1 2 3 4 5 6 7 8 9 10 11 12 13 14 15 16 17 18 19 20 21 22 23 24 25 26 27 28 29 30 31 32 33 34 35 36 37 38 39 40 41 42 43 44 45 46 47 48 49 50

000
ASUS43 KFSD 241110
RWRFSD

WEATHER ROUNDUP FOR SE SOUTH DAKOTA/SW MINNESOTA/NW IOWA
NATIONAL WEATHER SERVICE SIOUX FALLS SD
500 AM CST SAT FEB 24 2018

NOTE: "FAIR" INDICATES FEW OR NO CLOUDS BELOW 12,000 FEET WITH NO
SIGNIFICANT WEATHER AND OR OBSTRUCTIONS TO VISIBILITY.


SDZ038>040-050-052>070-241200-
SOUTHEAST SOUTH DAKOTA

CITY           SKY/WX    TMP DP  RH WIND       PRES   REMARKS
BROOKINGS      FLURRIES   3   0  87 CALM      30.08F
CHAMBERLAIN    CLOUDY    10   9  92 CALM      30.03F
HURON          CLOUDY     3   1  91 S3        30.10F
MADISON        LGT SNOW   7   7 100 SE6       30.07S WCI  -3
MITCHELL       CLOUDY     5   3  91 E3        30.11S FOG
SIOUX FALLS    CLOUDY    15  13  91 SE9       30.09F FOG     WCI   3
WINNER         CLOUDY    17  13  84 S10       29.98F WCI   5
YANKTON        MIX PCPN  16  14  92 NE8       30.07F VSB 1/4 WCI   5
$$

MNZ071-072-080-081-089-090-097-098-241200-
SOUTHWEST MINNESOTA

CITY           SKY/WX    TMP DP  RH WIND       PRES   REMARKS
FAIRMONT       FOG        9   6  88 E5        30.14F VSB 1/4 WCI   1
JACKSON        FOG        7   3  85 CALM      30.11F VSB 1/4
LUVERNE        FOG       12   9  85 SE3       30.10F VSB 3/4
MARSHALL       CLOUDY     0  -3  87 CALM      30.13F
MONTEVIDEO     FOG       -8 -11  84 CALM      30.15F VSB 1/2
PIPESTONE      FLURRIES   7   3  85 CALM      30.07S
REDWOOD FALLS  CLOUDY    -2  -4  91 NE3       30.14F FOG
TRACY          CLOUDY     8   6  92 CALM      30.11F
WORTHINGTON    FOG        9   7  92 E5        30.10F VSB 1/2 WCI   1
$$

IAZ001>003-012>014-020>022-031-032-NEZ013-014-SDZ071-241200-
NORTHWEST IOWA

CITY           SKY/WX    TMP DP  RH WIND       PRES   REMARKS
CHEROKEE       CLOUDY    17  17 100 E6        30.09F FOG     WCI   8
DENISON        CLOUDY    19  19 100 E9        30.07S WCI   9
ESTHERVILLE    FOG        9   8  96 NE8       30.12F VSB 1/4 WCI  -3
LE MARS        CLOUDY    19  19 100 E12       30.09F WCI   7
ORANGE CITY    CLOUDY    18  18 100 E6        30.08F FOG     WCI   9
SHELDON        FOG       14  14 100 E8        30.08F VSB 3/4 WCI   3
SIOUX CITY     CLOUDY    21  20  96 E8        30.08F WCI  11
SPENCER        FRZ RAIN  16  11  80 E9        30.11F VSB 1/2 WCI   4
STORM LAKE     FOG       16  14  93 E15       30.06F VSB<1/4 WCI   1
$$

ABBREVIATIONS USED IN REMARKS
   TC - TEMPERATURE IN CELSIUS
  WCI - WIND CHILL INDEX
   HX - HEAT INDEX
  VSB - VISIBILITY




USA.gov is the U.S. government's official web portal to all federal, state and local government web resources and services.